Aérodrome :
LOGIN :

S'inscrire | Disclaimer

   EN    FR    IT 

 










Légende :    VFR   VFR Marginal   IFR   IFR Intensif   IFR Très Intensif
Visi : 
Plafond : 
>= 8 km
>= 3000ft
5 à 8 km
1000 à 3000 ft
1500m à 5 km
500 à 1000 ft
800 à 1500m
200 à 500 ft
< 800m
< 200 ft
Symboles :   Orages  Brouillard  Fortes neiges  Fortes précipitations  Vent > 20 kt
SIGMETs :   Divers  Orages  Givrage  Turbulence  Onde Orograph.  Cendres Volcan.







- Altitude de l'aérodrome : 265 ft


ETSH - Holzdorf AB

DERNIER METAR :
  • 230720Z 16006KT 9999 FEW150 BKN220 04/01 Q1007 BLU+BLU+

METARs EXPIRÉS :
  • 230620Z 15008KT 9999 FEW150 SCT220 04/01 Q1007 BLU+BLU+
  • 230520Z 15009KT 9999 FEW230 03/01 Q1007 BLU+BLU+
  • 230420Z 16008KT 9999 SCT230 04/01 Q1007 BLU+BLU+

TAF TAF ETSH
Valide du 23 à 06h jusqu'au 23 à 15h UTC


230535Z 2306/2315 18010G20KT 9999 NSW SCT230
Pas de NOTAMs connus pour ce terrain.



MET'MAP, la Météo Aéronautique d'un coup d'oeil ! - Copyright ORBIFLY Décembre 2007 - Disclaimer

ORBIFLY MET'MAP TEAM :

Programmation & Développement : Alexandra Zaïnal
Conception & Développement : Baudouin d'Aumeries
Co-Programmation & Développement : Marc-Olivier Méhu
Soutien technique & logistique : Manuel Goepfert

Contact : metmap@orbifly.com




SOURCES & CREDITS :

   NOAA